Theta_e
337 332 333 328 313 310 310 312 319 318 320 323 323 320 319 320 317 313 337 339 337 337 351 350 353 353 352 351 350 349 348 345 342 341 339 338 337 335 334 334 334 333 334 334 334 335 336 335 334
325 328 329 323 308 306 308 316 317 321 323 324 324 323 320 317 324 325 331 340 337 338 352 345 353 352 352 352 352 350 349 346 344 343 342 341 340 339 338 337 337 337 337 336 337 337 338 338 337
327 328 322 314 312 307 309 317 320 323 324 322 320 322 321 319 324 326 338 341 338 338 349 348 353 352 353 353 352 351 350 348 345 345 344 343 342 342 341 341 341 341 341 340 340 340 339 340 340
325 325 323 314 312 316 316 321 322 321 323 323 322 318 323 327 326 330 338 339 337 336 343 354 353 353 353 353 353 352 351 350 348 346 345 344 344 345 345 343 342 342 343 342 341 341 340 340 341
326 322 312 310 310 314 318 323 323 320 321 320 321 317 319 327 329 330 336 338 336 336 339 350 354 354 354 354 354 353 352 351 351 348 346 346 347 348 348 345 345 345 345 344 343 342 343 343 342
318 319 311 308 311 315 318 323 323 320 321 321 318 318 320 328 328 331 334 338 337 337 340 346 355 354 354 354 354 353 352 352 351 350 350 350 349 348 347 347 346 345 344 343 343 343 342 343 342
315 315 310 310 310 312 316 321 318 319 318 319 322 316 322 326 331 333 334 337 340 338 339 342 354 354 354 354 353 352 352 352 352 352 352 350 348 348 346 344 343 342 341 341 341 341 340 340 340
318 316 311 312 309 310 317 318 321 320 318 325 324 317 320 328 332 332 334 334 337 338 338 340 349 353 350 350 354 353 353 353 353 352 351 351 348 348 346 345 342 340 338 337 338 338 339 340 341
321 311 308 310 310 312 318 316 322 323 321 321 323 323 326 330 330 330 331 332 333 336 339 339 341 346 348 346 348 353 351 351 352 350 349 348 342 341 343 343 344 339 338 337 336 336 337 337 339
316 312 311 316 316 315 318 318 319 319 318 320 321 324 326 328 329 328 329 329 330 333 336 339 341 345 346 343 348 351 346 345 346 344 344 347 345 343 340 342 337 337 338 337 336 335 336 336 332
318 312 317 317 319 319 318 318 320 318 316 319 319 322 324 325 327 326 327 328 330 333 335 338 350 354 348 344 342 345 347 345 345 346 349 348 341 342 341 340 340 339 340 337 336 335 334 333 332
314 318 319 319 320 319 317 320 318 319 319 323 324 325 325 324 324 324 325 326 327 330 334 338 343 352 355 346 342 344 344 343 341 342 347 345 341 344 341 338 340 343 337 338 335 334 337 337 336
313 315 318 320 320 320 320 317 318 319 323 325 325 324 323 323 323 325 325 326 326 328 334 336 346 352 355 357 344 346 346 339 340 339 341 341 340 343 341 342 338 339 338 334 334 334 335 336 332
316 316 316 317 318 319 317 318 319 320 323 323 323 322 322 322 323 324 324 326 328 332 334 338 345 354 351 353 358 351 348 340 338 337 339 342 341 343 338 339 340 339 338 338 336 335 333 333 334
316 311 314 316 316 315 317 313 315 321 322 321 321 320 321 321 323 323 323 329 332 333 336 342 350 352 355 354 352 347 342 340 337 338 341 342 344 343 342 337 338 344 341 342 340 338 337 334 334
310 312 306 313 315 315 315 307 316 321 320 319 319 319 319 321 323 324 324 331 334 334 339 341 339 344 352 353 349 343 339 339 338 337 339 343 343 343 342 340 338 342 343 340 339 338 335 333 336
308 303 305 307 314 314 312 309 315 318 318 317 318 318 319 320 323 328 325 328 333 337 339 341 344 341 348 351 345 345 349 340 338 338 338 342 341 341 344 340 339 341 342 339 336 336 336 335 333
300 302 304 305 311 313 310 310 314 316 316 316 317 317 318 320 322 325 326 330 333 337 341 343 342 349 351 345 346 339 338 338 338 338 339 340 340 340 341 338 339 342 339 332 338 335 336 333 333
305 305 304 308 312 310 309 311 313 314 315 315 316 317 319 321 324 325 329 333 333 336 340 340 341 350 344 339 335 335 333 336 337 337 339 339 341 339 341 337 337 339 334 335 335 336 331 333 336
304 303 304 308 312 310 309 309 312 314 314 315 317 318 320 321 321 324 329 333 333 336 338 339 339 344 343 340 342 337 337 336 337 337 340 341 341 341 339 338 336 336 334 335 335 334 332 332 335
302 302 303 304 309 309 309 306 309 313 315 315 316 319 320 320 320 323 330 332 334 335 338 338 340 342 343 346 341 341 339 338 334 334 336 338 338 337 339 336 336 337 339 336 336 334 331 327 329
298 305 305 304 303 299 308 297 306 310 311 313 316 319 319 320 321 325 331 332 334 335 338 339 341 341 341 343 343 342 333 331 335 337 338 338 339 338 336 338 336 336 339 337 336 332 333 334 329
301 306 305 304 302 301 301 298 302 308 307 311 315 318 320 319 322 327 330 332 334 336 336 339 340 340 341 342 341 337 334 332 334 335 337 339 339 338 335 338 336 336 341 337 337 334 335 337 335
305 303 304 305 302 294 300 299 300 303 307 311 315 318 319 319 326 329 331 333 333 335 336 338 339 339 341 339 339 339 335 335 333 334 336 336 341 340 338 335 337 338 337 335 333 336 336 336 336
304 300 293 293 292 294 302 299 302 308 311 313 315 317 318 323 326 328 329 330 332 333 334 336 337 338 339 338 337 337 338 337 335 336 335 335 340 338 338 337 338 337 337 336 337 337 336 337 335
301 300 294 288 291 294 302 297 302 313 315 317 316 316 322 325 327 328 329 330 331 332 334 334 336 336 336 335 335 336 338 334 335 335 337 340 340 338 340 338 338 337 335 334 337 338 336 337 337
300 298 304 298 301 297 301 306 311 313 313 314 315 316 319 325 327 328 329 330 331 332 334 335 335 335 334 334 336 336 336 336 335 336 339 340 340 338 337 337 337 336 335 334 336 337 336 337 335
302 306 296 300 292 292 298 301 303 307 310 313 313 314 318 326 326 328 329 330 331 333 334 335 335 332 333 334 334 334 338 335 335 336 335 337 337 335 335 336 335 335 334 334 336 336 336 335 338
299 299 300 302 300 294 293 299 309 309 311 312 313 316 319 325 326 327 328 330 331 333 333 333 332 332 332 333 334 336 335 336 334 335 335 338 338 337 335 334 333 333 333 333 335 335 333 331 332
302 300 302 298 297 300 300 299 309 311 313 314 316 318 322 326 326 327 328 329 330 331 332 331 331 331 332 333 334 336 335 334 336 334 335 335 335 336 336 334 332 331 332 334 333 331 331 332 330
Wind_Speed
9 9 8 5 7 8 16 13 14 4 9 1 4 7 10 12 12 6 7 7 13 17 19 22 21 21 19 18 17 16 15 13 13 11 10 9 8 7 5 5 5 4 4 3 3 3 4 4 5
12 9 5 6 8 13 15 14 10 10 8 5 7 8 9 9 8 3 10 11 12 16 17 21 22 21 20 19 17 16 15 15 14 12 10 9 8 8 8 7 7 7 6 6 5 5 5 5 5
10 12 6 6 13 14 10 2 7 7 3 7 5 3 8 5 4 6 10 12 13 15 17 17 23 21 19 19 18 17 16 15 14 12 11 9 10 10 10 10 10 10 10 9 9 8 8 8 7
9 8 9 11 18 15 14 9 6 4 9 5 8 9 6 7 3 6 6 12 12 15 16 17 24 21 19 19 18 17 16 14 14 13 11 10 11 10 10 12 12 13 13 13 12 11 10 10 10
12 10 13 15 18 16 7 13 1 7 12 6 2 12 1 14 6 3 4 9 9 13 14 18 22 20 19 19 18 17 16 14 14 13 12 11 11 11 11 13 14 13 13 14 14 13 12 11 10
10 13 14 15 19 18 6 9 11 12 12 6 3 10 5 10 4 3 2 8 10 11 13 16 20 20 18 18 17 16 16 15 13 12 11 11 10 10 12 12 12 12 13 13 15 15 14 12 9
17 14 17 19 18 15 5 10 10 13 12 7 3 7 5 7 8 1 3 5 10 10 12 13 16 18 17 16 16 16 14 13 12 11 10 10 10 11 12 12 12 11 11 11 11 10 10 11 11
15 15 23 18 16 18 12 4 14 9 8 9 2 8 11 12 4 5 7 6 11 11 13 13 14 17 17 16 14 14 13 12 12 10 10 10 11 13 14 11 12 13 10 9 9 11 11 11 10
20 17 18 21 21 17 13 8 10 4 10 10 9 12 11 11 8 11 9 8 9 10 13 14 15 15 17 16 16 14 13 13 11 11 12 11 11 13 16 16 12 11 9 9 10 10 12 13 13
21 17 25 21 19 19 16 10 14 9 12 16 15 18 13 7 13 14 14 13 13 12 14 14 15 15 16 13 14 14 14 12 12 12 12 11 11 10 7 4 6 7 10 11 12 13 13 12 10
24 24 24 21 23 23 21 16 16 19 16 17 15 20 14 16 15 16 18 18 14 15 13 16 13 12 15 14 11 8 8 9 9 12 9 7 8 7 7 5 4 7 13 9 13 11 9 12 10
30 29 26 26 28 25 23 23 21 22 21 15 19 23 20 18 17 18 19 20 21 19 15 16 17 14 14 10 11 11 9 9 7 8 9 7 6 8 7 5 6 4 5 7 6 5 8 6 6
32 28 28 28 28 28 28 31 25 26 24 21 21 23 22 20 21 18 20 21 22 20 16 14 17 15 12 12 11 10 9 9 8 7 8 7 8 7 6 5 7 5 5 6 7 7 5 4 7
30 32 33 31 32 32 30 32 31 24 29 28 22 23 24 22 20 20 22 22 20 18 13 14 17 15 16 13 10 9 7 9 8 7 7 8 7 6 7 5 6 6 6 5 3 5 4 4 6
33 35 34 34 30 31 26 37 34 27 29 29 23 24 24 18 21 22 22 18 16 15 11 12 14 15 15 15 12 9 9 8 8 8 8 7 8 8 9 7 6 5 7 6 6 7 8 6 4
34 34 31 29 33 29 25 34 28 28 26 25 22 22 16 21 23 21 18 16 15 12 11 12 13 17 16 14 11 9 9 9 7 6 6 9 9 9 9 5 8 7 6 6 5 5 6 8 6
28 28 36 30 30 27 28 37 27 26 26 26 23 16 18 21 22 19 18 15 12 11 10 12 12 15 17 13 11 11 8 7 6 6 6 8 8 9 8 6 7 8 6 7 5 6 7 7 7
29 32 32 33 27 29 31 35 27 24 22 27 22 18 22 23 23 20 17 10 8 8 6 10 12 12 14 11 9 9 8 7 6 6 6 7 6 6 5 6 5 7 7 3 7 8 6 6 6
31 26 33 31 27 30 30 31 22 24 27 25 23 18 22 23 22 17 11 1 4 4 8 12 13 12 12 11 11 9 8 7 6 6 6 7 5 6 7 4 5 7 5 8 7 8 8 5 6
32 31 32 29 28 25 25 29 24 25 23 26 25 23 21 25 16 15 4 4 5 8 10 12 13 13 12 10 8 7 6 6 5 4 3 4 6 6 7 9 7 5 6 8 9 7 6 5 7
32 31 29 32 25 26 26 26 30 29 25 24 29 28 24 18 20 16 6 5 8 10 12 13 14 15 12 9 6 3 4 2 5 7 7 6 6 7 5 5 6 6 7 5 6 6 9 5 8
33 30 28 27 23 21 23 22 33 25 25 25 26 21 16 22 19 5 7 8 10 11 13 15 15 15 11 10 8 7 5 5 2 1 4 6 5 3 7 6 8 4 4 6 6 8 6 6 8
36 24 27 25 20 25 29 20 20 21 23 24 18 20 22 15 15 10 10 11 11 13 13 14 16 14 12 9 7 6 6 3 4 3 1 4 2 7 7 6 4 6 4 6 6 7 6 6 6
29 28 27 23 19 21 27 23 22 22 24 21 23 21 19 19 9 9 11 12 13 14 15 15 15 12 11 9 5 4 2 3 3 2 3 3 4 5 8 7 5 4 5 6 5 4 6 5 6
30 26 17 20 20 28 19 21 22 23 20 25 22 19 13 14 13 13 15 15 16 17 17 14 14 12 11 9 7 5 5 3 3 5 2 4 4 4 6 5 5 5 6 6 5 4 4 5 4
31 30 18 33 15 20 24 25 21 20 18 21 12 10 12 14 14 15 17 17 18 18 17 15 14 13 11 9 7 5 5 4 5 1 2 5 2 3 6 6 5 6 7 7 6 4 3 4 3
39 30 33 25 24 17 17 17 16 17 12 14 18 17 13 15 15 16 17 17 17 17 16 15 13 12 10 8 6 6 4 3 1 2 2 2 3 4 5 6 6 6 7 6 5 2 3 3 4
34 26 24 23 28 22 14 12 9 7 16 19 18 15 18 16 16 17 17 17 16 16 14 13 12 12 10 8 7 5 3 2 2 2 2 3 1 0 5 6 7 7 6 7 5 3 3 4 4
25 24 31 20 19 16 16 10 3 4 12 8 16 16 19 18 18 18 18 18 17 16 15 13 12 12 10 8 7 5 5 3 2 2 1 1 2 4 6 6 5 6 7 6 6 5 4 4 5
31 32 30 19 26 16 12 6 6 4 16 5 12 15 20 18 18 19 19 18 17 16 15 13 12 12 10 9 7 5 4 4 4 3 3 1 3 4 6 6 5 3 6 5 6 6 5 4 6
Wind_Direction
175 195 229 247 243 235 237 238 269 127 209 130 342 287 331 338 326 6 122 126 140 147 154 169 172 174 174 173 176 180 182 183 187 190 193 192 197 208 222 235 233 230 237 243 239 248 241 258 275
181 190 201 258 254 234 230 230 178 243 32 345 272 258 241 305 358 12 151 153 151 150 156 176 176 177 177 175 178 183 185 186 192 198 201 207 215 221 225 233 253 258 250 255 252 255 258 250 249
208 219 259 229 234 258 289 290 241 88 229 254 264 162 328 334 87 341 84 155 160 160 162 179 173 181 178 179 180 183 188 189 195 202 208 216 230 239 243 240 238 246 255 256 257 253 244 251 251
200 212 255 259 253 231 287 181 82 276 217 230 295 292 149 58 357 29 97 166 169 172 170 158 171 183 183 182 181 185 189 192 198 206 213 223 237 244 242 248 251 252 252 253 258 258 257 254 250
229 254 246 237 249 269 274 276 337 295 271 289 134 279 258 90 56 24 134 180 191 179 177 156 172 184 185 186 186 187 190 194 201 209 217 225 237 246 251 253 254 261 263 261 260 260 256 259 260
223 239 248 244 241 242 248 264 259 267 264 257 241 262 300 122 112 93 171 192 210 188 179 159 175 182 191 189 190 190 192 196 202 211 219 230 241 252 259 266 253 258 262 264 261 270 258 269 255
236 235 250 267 283 291 285 257 263 271 262 244 118 293 284 154 87 354 273 226 219 204 187 182 178 185 195 194 194 193 195 198 204 209 221 236 251 261 266 262 255 258 267 273 274 276 270 267 265
243 259 270 262 263 270 279 251 255 252 283 84 196 267 276 87 45 299 242 233 208 210 197 202 184 185 197 197 201 199 194 200 208 211 226 240 254 257 252 244 232 238 250 261 275 276 272 268 261
233 252 248 250 258 267 275 236 243 17 299 285 282 272 272 302 301 277 283 264 255 211 204 201 199 195 192 201 192 196 204 212 217 219 227 230 248 257 227 222 224 181 210 246 256 260 264 262 257
229 238 246 253 265 266 263 268 272 212 237 258 262 258 253 245 263 285 287 271 257 232 219 208 213 200 192 200 197 193 203 212 217 226 237 218 237 248 282 348 172 202 224 240 244 244 244 246 250
229 240 257 251 258 267 272 267 283 277 273 273 278 285 316 304 292 280 275 278 265 286 222 213 192 204 207 197 187 191 199 203 217 228 234 248 262 267 239 225 223 223 221 236 212 221 230 230 238
245 239 249 257 274 274 259 267 260 265 276 287 283 285 291 289 284 286 290 287 283 266 229 218 196 196 203 206 191 192 200 199 205 212 209 232 252 235 241 266 260 226 239 232 270 232 212 245 282
237 244 247 257 263 261 270 279 273 269 275 284 281 281 281 277 279 284 283 281 278 267 268 248 184 181 205 221 193 199 196 192 207 209 219 228 260 252 252 206 241 255 252 247 249 276 269 243 242
249 253 256 258 260 265 270 269 264 257 266 273 273 277 273 277 287 289 287 281 277 272 258 265 178 178 192 206 225 186 185 202 194 219 223 212 245 250 259 240 234 260 247 226 209 239 277 236 288
258 261 260 255 257 261 256 263 261 267 268 272 268 267 264 273 286 292 294 294 285 280 247 244 183 180 194 203 210 187 187 219 196 207 216 228 232 238 255 263 249 254 264 287 256 258 258 236 236
249 253 257 251 252 248 245 258 265 268 268 265 269 270 280 279 287 294 296 282 277 263 267 225 195 184 192 201 197 198 199 190 214 214 224 207 227 245 265 248 264 261 257 256 240 234 254 257 249
236 244 241 252 247 250 241 255 261 269 264 267 266 275 271 279 289 289 287 276 268 258 237 216 195 198 189 195 192 204 188 208 205 217 228 223 226 232 243 250 253 251 249 242 234 229 231 244 245
229 236 243 255 256 243 245 256 251 262 264 266 269 265 272 280 290 296 284 270 283 279 224 184 192 199 173 183 196 196 178 205 216 220 230 236 234 246 254 258 249 263 251 217 225 224 227 234 243
241 247 247 251 237 244 261 266 248 257 258 260 260 261 272 281 287 289 272 1 271 206 187 187 190 171 169 178 191 191 203 199 219 219 226 242 251 245 254 233 251 245 222 228 223 228 222 218 231
242 251 252 260 260 254 249 261 266 257 257 271 275 264 271 277 277 276 237 156 179 179 181 181 176 163 182 179 202 197 205 205 218 224 187 222 246 230 221 234 244 230 221 228 227 213 216 224 205
233 235 242 252 259 258 267 266 262 257 265 266 270 271 267 274 266 266 153 170 170 175 171 166 165 166 188 167 167 156 129 271 215 217 214 210 223 249 255 249 229 216 223 226 229 216 211 199 198
235 228 240 251 259 259 254 263 256 259 254 259 257 257 250 251 260 204 148 167 176 167 164 158 158 167 171 165 165 186 222 246 29 8 124 177 218 240 239 218 223 204 225 227 213 205 200 192 210
242 234 235 240 248 259 253 257 266 273 264 265 258 257 257 255 236 150 172 168 167 157 158 153 154 166 150 181 167 176 244 182 229 248 205 230 219 232 228 218 208 225 217 217 228 171 188 208 212
239 235 242 245 247 248 245 246 263 261 264 262 254 255 246 231 144 150 153 156 151 154 149 153 152 152 157 165 165 208 131 282 312 297 290 265 233 227 245 212 189 217 206 218 207 148 203 187 201
223 223 222 228 224 245 247 243 258 267 270 249 243 257 225 157 152 152 158 160 157 153 150 152 152 152 159 159 168 175 184 203 252 274 8 268 224 216 223 194 194 200 204 184 130 185 209 196 186
222 211 218 217 221 240 230 242 255 265 240 250 256 279 143 160 153 158 166 154 156 153 153 155 155 154 159 164 160 164 178 210 232 226 309 254 9 184 211 192 183 188 196 178 150 190 204 204 186
213 210 220 249 229 246 259 232 224 250 238 244 239 221 195 164 156 162 157 160 155 153 158 153 155 153 161 162 156 175 195 257 330 301 270 263 222 193 194 159 165 169 196 171 145 193 205 140 139
231 209 208 224 240 243 230 253 212 223 226 225 237 214 179 155 164 162 157 158 155 154 154 153 158 155 159 154 169 162 179 154 247 205 261 226 161 126 173 146 154 171 167 163 171 169 209 161 135
216 210 213 226 230 236 252 245 159 253 274 231 205 196 165 163 166 159 159 158 154 155 153 154 159 158 161 160 168 126 212 88 141 150 94 295 129 201 159 152 155 159 151 162 167 167 193 166 125
213 218 203 223 216 237 271 187 95 225 247 257 195 163 153 167 161 160 159 160 157 160 151 158 160 160 163 165 155 171 110 102 131 116 140 156 134 194 150 129 135 154 123 159 174 184 145 148 144